Regional Weather Roundup
Issued by NWS Northern Indiana

Home | Current Version | Previous Version | Graphics & Text | Print | Product List | Glossary On
Versions: 1 2 3 4 5 6 7 8 9 10 11 12 13 14 15 16 17 18 19 20 21 22 23 24 25 26 27 28 29 30 31 32 33 34 35 36 37 38 39 40 41 42 43 44 45 46 47 48 49 50
000
ASUS43 KIWX 271710
RWRIWX

KIWX WEATHER ROUNDUP
NATIONAL WEATHER SERVICE NORTHERN INDIANA
1200 PM EST THU NOV 27 2014

NOTE: "FAIR" INDICATES FEW OR NO CLOUDS BELOW 12,000 FEET WITH NO
SIGNIFICANT WEATHER AND/OR OBSTRUCTIONS TO VISIBILITY.

* THESE STATIONS ARE NOT UNDER NWS QUALITY CONTROL. THEY ALSO MAY NOT
  REPORT WEATHER SUCH AS PRECIPITATION OR FOG.

INZ001>027-271800-
NORTHERN INDIANA

CITY           SKY/WX    TMP DP  RH WIND       PRES   REMARKS
GARY*          PTSUNNY   30  19  64 W12       30.34R WCI  21
VALPARAISO     CLOUDY    28  21  75 NW13      30.30S WCI  17
MICHIGAN CITY* CLOUDY    30  21  69 NW12      30.29S WCI  21
LAPORTE*       CLOUDY    31  26  81 W9        30.28S WCI  23
KNOX*          CLOUDY    28  22  79 W12       30.29R WCI  18
SOUTH BEND     LGT SNOW  30  28  92 W13       30.25F VSB 1   WCI  20
GOSHEN         LGT SNOW  31  28  89 W14       30.23F FOG     WCI  21
MONTICELLO*    CLOUDY    28  22  81 W15       30.32R WCI  16
LOGANSPORT*    PTSUNNY   30  23  74 W14       30.31S WCI  20
ROCHESTER*     CLOUDY    32  28  86 W12       30.28S WCI  23
WARSAW*        FLURRIES  32  28  86 W13       30.24F WCI  22
ANGOLA*        CLOUDY    30  18  59 W7        30.20F WCI  23
FORT WAYNE     LGT SNOW  31  27  85 W14       30.24F FOG     WCI  21
HUNTINGTON*    LGT SNOW  29  28  92 W10       30.25F WCI  20
PERU/GRISSOM   CLOUDY    29  29  97 W14       30.28S WCI  19
MARION*        LGT SNOW  29  26  88 W14       30.28S WCI  18

$$
INZ028>050-271800-
CENTRAL INDIANA

CITY           SKY/WX    TMP DP  RH WIND       PRES   REMARKS
LAFAYETTE      CLOUDY    27  21  78 W14       30.34S WCI  16
KOKOMO*        CLOUDY    28  25  86 W16       30.29S WCI  17
MUNCIE*        LGT SNOW  30  26  85 W13       30.27S FOG     WCI  20
INDIANAPOLIS   LGT SNOW  29  22  75 NW15      30.32S WCI  18

$$
MIZ043>046-050>051-056>058-064>065-071>073-077>080-271800-
SOUTHWEST LOWER MICHIGAN

CITY           SKY/WX    TMP DP  RH WIND       PRES   REMARKS
BATTLE CREEK   CLOUDY    32  27  81 SW8       30.17F WCI  25
BENTON HARBOR  CLOUDY    31  25  78 NW13G23   30.25S WCI  21
COLDWATER*     LGT SNOW  32  28  86 W8        30.19F WCI  25
HILLSDALE*     LGT SNOW  30  25  81 W8        30.17F WCI  23
HOLLAND        LGT SNOW  31  26  82 NW5       30.23S WCI  26
GRAND RAPIDS   CLOUDY    30  24  78 NW7       30.20S WCI  23
KALAMAZOO      LGT SNOW  31  27  85 W10       30.19F FOG     WCI  22
STURGIS*       LGT SNOW  30  28  93 W7        30.19F WCI  23
THREE RIVERS*  FLURRIES  32  29  88 W8        30.21F WCI  25

$$
OHZ001>008-015>018-024>025-271800-
NORTHWEST OHIO

CITY           SKY/WX    TMP DP  RH WIND       PRES   REMARKS
WAUSEON*       PTSUNNY   32  23  69 W13G18    30.20S WCI  22
DEFIANCE       CLOUDY    33  21  61 W9        30.22F WCI  25
FINDLAY        PTSUNNY   36  20  52 W13       30.19F
TOLEDO EXPRESS CLOUDY    32  22  66 W13       30.20S WCI  22
TOLEDO METCALF PTSUNNY   35  21  56 W13       30.20F WCI  26
LIMA           CLOUDY    33  23  66 NW10      30.21R WCI  25

$$
AND FOR LAKE MICHIGAN COASTAL AND OPEN LAKE BUOY OBSERVATIONS

STATION/POSITION TEMP    WIND        PRES    VSBY  WAVE
                 AIR SEA DIR/SP/G                  HT/PER
                 (F)     (DEG/KT/KT) (MB)    (MI)  (FT/S)
CALUMET HARBOR    27     280/  8/ 17 1025.7R
MICHIGAN CITY     29     270/ 22/ 24   N/A
SAINT JOSEPH      33     300/ 18/ 23 1024.7F
SOUTH LAKE BUOY   30 42  300/ 19/ 25 1025.9R         5/ 6

$$
&&


USA.gov is the U.S. government's official web portal to all federal, state and local government web resources and services.